Погода в Алтынжаре

Россия / Астраханская область     46°16′27″N   48°30′24″E
темп.,
°C
ветер,
м/с
пор.,
м/с
влажн.,
%
обл.,
%
осадки,
мм/ч
давл.,
гПа
погр.,
м
17 мая, пн
пн1701:00+19в45650 0.0 101274
04:00+20в511540 0.0 1011155
07:00+23вюв614450 0.0 1012403
10:00+29юв812240 0.0 1012899
13:00+31юв912180 0.0 10121779
16:00+31юв811160 0.0 10111960
19:00+27вюв59300 0.0 1010371
22:00+20в46565 0.0 101085
18 мая, вт
вт1801:00+20в49540 0.0 1008123
04:00+23вюв818390 0.0 1008383
07:00+25вюв817350 0.0 1008572
10:00+30юв914215 0.0 10091127
13:00+30юв81320100 0.0 10091256
16:00+29юв6822100 0.0 1009714
19:00+27вюв4728100 0.0 1009296
22:00+23вюв223492 0.0 100916
19 мая, ср
ср1901:00+20з2343100 0.0 100827
04:00+20зсз3446100 0.0 100875
07:00+21зсз355689 0.0 1008178
10:00+28зсз32335 0.0 1007801
13:00+32зюз342499 0.0 10071866
16:00+33з652292 0.0 10072143
19:00+29зсз7931100 0.0 1008663
22:00+20сз91566100 0.4 1012609
20 мая, чт
чт2001:00+18сз7146863 1.4 1014664
04:00+17зсз7147034 2.4 1015413
07:00+18сз610660 0.0 1017515
10:00+22сз68430 0.0 10171206
13:00+25зсз67340 0.0 10171921
16:00+26зсз66297 0.0 10162442
19:00+25сз66345 0.0 10171896
22:00+20сз49475 0.0 1018229
21 мая, пт
пт2101:00+18ссз35520 0.0 101984
04:00+17с23570 0.0 101924
07:00+19с23510 0.0 1020183
10:00+24с44330 0.0 10201441
13:00+27с33250 0.0 10191932
16:00+29ссв32220 0.0 10192373
19:00+26ю22300 0.0 1019778
22:00+19юз34500 0.0 102063